Regional Weather Roundup
Issued by NWS

Home | Current Version | Previous Version | Graphics & Text | Print | Product List | Glossary On
Versions: 1 2 3 4 5 6 7 8 9 10 11 12 13 14 15 16 17 18 19 20 21 22 23 24 25 26 27 28 29 30 31 32 33 34 35 36 37 38 39 40 41 42 43 44 45 46 47 48 49 50
000
ASUS45 KTFX 272304
RWRMT
MONTANA HOURLY WEATHER ROUNDUP
NATIONAL WEATHER SERVICE GREAT FALLS MT
404 PM MST TUE JAN 27 2015

NOTE: "FAIR" INDICATES FEW OR NO CLOUDS BELOW 12000 FEET WITH NO
SIGNIFICANT WEATHER AND/OR OBSTRUCTIONS TO VISIBILITY.

* THESE STATIONS ARE NOT UNDER NWS QUALITY CONTROL. THEY DO NOT
   REPORT WEATHER SUCH AS PRECIPITATION OR FOG.

MTZ001>007-043-280000-
WEST OF THE DIVIDE
CITY           SKY/WX    TMP DP  RH WIND       PRES   REMARKS
KALISPELL      PTSUNNY   36  28  73 CALM      29.93F
MISSOULA       PTSUNNY   37  30  76 CALM      29.99F
BUTTE          PTSUNNY   45  30  56 CALM      29.97F
MULLAN PASS    PTSUNNY   43  25  49 VRB3      29.99S
* ANACONDA     PTSUNNY   48  30  50 N3         N/A
* ESSEX        N/A       41  31  68 SE2        N/A
* LINCOLN      N/A       50  29  44 NE3        N/A
* LOOKOUT PASS N/A       46  30  54 NW3        N/A
* POLSON       N/A       45  31  58 N/A        N/A
* RONAN APT    CLOUDY    34  34 100 N/A        N/A
* SEELEY LAKE  N/A       48  29  48 SW2        N/A
* THOMP F APT  PTSUNNY   41  28  60 SE7G15     N/A
* YAAK HILL    N/A       34  32  92 N/A        N/A
$$

MTZ008-052>055-280000-
SOUTHWEST MONTANA
CITY           SKY/WX    TMP DP  RH WIND       PRES   REMARKS
BOZEMAN        CLOUDY    43  34  71 CALM      29.96F
DILLON         PTSUNNY   54  28  37 SW8       29.97F
* W YELLOWSTON PTSUNNY   44  28  53 SW4G11     N/A
* THREE FORKS  PTSUNNY   45  45 100 N/A        N/A
* BOULDER HILL N/A       50  24  36 S6         N/A
* MONIDA PASS  N/A       36  29  76 SE20G25    N/A   WCI  25
* RAYNOLDS PAS N/A       42  24  49 S16G22     N/A
* WHITEHALL    N/A       58  28  32 SW4G13     N/A
* WISE RIVER   N/A       40  28  62 N/A        N/A
$$

MTZ009>010-012-014-046-048-049-054-280000-
EAST SLOPES AND CENTRAL MONTANA
CITY           SKY/WX    TMP DP  RH WIND       PRES   REMARKS
CUT BANK       CLOUDY   N/A N/A N/A N/A       29.81F
GREAT FALLS    PTSUNNY   59  27  29 SW10      29.85S
HELENA         PTCLDY    46  32  58 CALM      29.93F
MALMSTROM AFB  PTSUNNY   59  27  29 SW12      29.85S
* DEARBORN     N/A       62  24  23 S8G14      N/A
* EAST GLACIER N/A       52  19  27 W12G17     N/A
* MONARCH      N/A       56  15  20 W6         N/A
* PENDROY      N/A       54  23  30 W16        N/A
* ROGERS PASS  N/A       51  22  32 E11G17     N/A
* SWEET GRASS  N/A       52  24  34 W17        N/A
$$

MTZ011-013-016-021-035-040-045-047-050-051-280000-
NORTH CENTRAL MONTANA
CITY           SKY/WX    TMP DP  RH WIND       PRES   REMARKS
HAVRE          CLOUDY    55  36  49 SW13      29.78F
LEWISTOWN      CLOUDY    54  32  43 W3        29.86S
* N BAR RANCH  SUNNY     57  25  29 W6        29.87F
* CHESTER      N/A       49  31  50 NW1        N/A
* DENTON       N/A       57  29  34 SW5        N/A
* GEYSER       N/A       61  19  20 W21G27     N/A
* JUDITH GAP   N/A       54  27  35 SW14       N/A
* LOMA         N/A       63  33  33 SW9        N/A
$$

MTZ017>020-022>027-061-062-280000-
NORTHEAST MONTANA
CITY           SKY/WX    TMP DP  RH WIND       PRES   REMARKS
GLASGOW        CLOUDY    46  36  68 SE7       29.79F
GLENDIVE       PTSUNNY   54  37  53 S8        29.83S
JORDAN         CLOUDY    48  37  66 CALM      29.80F
SIDNEY         CLOUDY    48  37  66 S3        29.81F
WOLF POINT     CLOUDY    48  37  66 SW5       29.80S
* BEAVER HILL  N/A       52  36  55 S8         N/A
* CIRCLE       N/A       53  40  62 N/A        N/A
* LINDSAY DVD  N/A       57  32  39 W6         N/A
* NAVAJO       N/A       47  33  58 W15        N/A
* SACO         N/A       46  36  68 SE1        N/A
$$

MTZ028>042-056>058-280000-
SOUTHCENTRAL AND SOUTHEAST MONTANA
CITY           SKY/WX    TMP DP  RH WIND       PRES   REMARKS
BAKER          PTCLDY    55  37  51 W8        29.84F
BILLINGS       CLOUDY    57  30  36 SW7       29.87F
LIVINGSTON     CLOUDY    59  27  29 SW24G33   29.92S
MILES CITY     PTCLDY    57  36  46 S5        29.83S
* LAUREL APT   CLOUDY    57  28  33 N/A        N/A
* ROUNDUP APT  CLOUDY    61  27  27 S5         N/A
* ALZADA       N/A       65  38  37 W2         N/A
* HYSHAM       N/A       62  25  24 W4G9       N/A
* REED POINT   N/A       49  32  52 N/A        N/A
* ROSCOE HILL  N/A       59  14  17 S14G21     N/A
$$

REGIONAL REPORTS...DAKOTAS
CITY           SKY/WX    TMP DP  RH WIND       PRES   REMARKS
WILLISTON      CLOUDY    50  37  61 CALM      29.79S
DICKINSON      PTSUNNY   55  37  51 SW6       29.80S
CROSBY         SUNNY     43  39  86 CALM      29.79R
WATFORD CITY   SUNNY     48  39  71 W3        29.78S
BISMARCK       CLOUDY    52  27  38 S3        29.82F
GRAND FORKS    CLOUDY    32  28  85 S17G25    29.94S WCI  21
FARGO          CLOUDY    34  28  79 SE18      29.97S WCI  23
BUFFALO SD     SUNNY     64  30  28 NW5       29.78F
RAPID CITY     SUNNY     66  30  26 E6        29.86F
$$

REGIONAL REPORTS...WYOMING/IDAHO/WASHINGTON
CITY           SKY/WX    TMP DP  RH WIND       PRES   REMARKS
GILLETTE       SUNNY     59  30  33 W5        29.90S
SHERIDAN       PTCLDY    50  34  54 W7        29.88F
CODY           CLOUDY    45  32  60 CALM      29.95S
YELLOWSTONE LA PTSUNNY   43  23  45 VRB5      30.15F
SALMON         PTSUNNY  N/A N/A N/A CALM      30.07F
MULLAN PASS    PTSUNNY   43  25  49 VRB3      29.99S
SAND POINT     FOG      N/A N/A N/A CALM      30.00S VSB M1/4
SPOKANE        FOG       34  34 100 N3        29.99R VSB M1/4
$$

REGIONAL REPORTS...ALBERTA
CITY           SKY/WX    TMP DP  RH WIND       PRES   REMARKS
EDMONTON       FOG       30  30 100 W6        29.80R VSB 3/4  WCI  24

$$




USA.gov is the U.S. government's official web portal to all federal, state and local government web resources and services.